N2XGL-1 Weather Reports


Display with metric or nautical units.
time (UTC)temp
F
wind
direction
speed
MPH
gust
MPH
rain 1hr
in
rain 24hr
in
rain mn
in
humidity
%
barometer
mb
20260904151055 70 180 1.0 2.0 0.00 0.00 0.00 55 1004.2
20260904150151 66 180 1.0 3.0 0.00 0.00 0.00 56 1004.2
20260904145445 64 248 1.0 2.0 0.00 0.00 0.00 66 1004.3
20260904145325 64 248 1.0 2.0 0.00 0.00 0.00 66 1004.3
20260904144333 62 0 0.0 2.0 0.00 0.00 0.00 67 1004.2
20260904143455 60 0 0.0 2.0 0.00 0.00 0.00 72 1004.2
20260904141615 58 225 1.0 3.0 0.00 0.00 0.00 73 1004.1
20260904140815 57 0 0.0 1.0 0.00 0.00 0.00 74 1004.0
20260904140016 56 225 1.0 2.0 0.00 0.00 0.00 72 1004.0
20260904135036 56 0 0.0 1.0 0.00 0.00 0.00 71 1003.9
20260904134220 55 270 1.0 3.0 0.00 0.00 0.00 72 1003.8
20260904131605 55 270 1.0 2.0 0.00 0.00 0.00 71 1003.4
20260904130645 55 270 1.0 2.0 0.00 0.00 0.00 72 1003.3
20260904125730 55 0 0.0 1.0 0.00 0.00 0.00 72 1003.2
20260904124916 55 248 1.0 2.0 0.00 0.00 0.00 72 1003.1
20260904123955 55 0 0.0 2.0 0.00 0.00 0.00 71 1003.0
20260904123036 55 0 0.0 1.0 0.00 0.00 0.00 71 1003.0
20260904122150 55 0 0.0 1.0 0.00 0.00 0.00 69 1002.9
20260904121225 56 0 0.0 1.0 0.00 0.00 0.00 67 1002.7
20260904120345 56 292 1.0 2.0 0.00 0.00 0.00 67 1002.5
20260904112749 57 270 1.0 2.0 0.00 0.00 0.00 70 1002.2
20260904111750 57 0 0.0 1.0 0.00 0.00 0.00 69 1002.2
20260904110840 58 0 0.0 0.0 0.00 0.00 0.00 69 1002.1
20260904104931 59 0 0.0 2.0 0.00 0.00 0.00 70 1002.0
20260904104010 59 270 1.0 2.0 0.00 0.00 0.00 69 1002.0
20260904103119 59 338 1.0 2.0 0.00 0.00 0.00 66 1001.9
20260904102220 60 0 0.0 2.0 0.00 0.00 0.00 67 1001.7
20260904101251 61 0 0.0 1.0 0.00 0.00 0.00 66 1001.8
20260904100340 62 292 1.0 2.0 0.00 0.00 0.00 64 1001.8
20260904095406 63 270 2.0 4.0 0.00 0.00 0.00 56 1001.8
20260904094435 63 22 1.0 2.0 0.00 0.00 0.00 56 1001.6
20260904093520 63 158 1.0 3.0 0.00 0.00 0.00 56 1001.6
20260904092646 62 22 1.0 4.0 0.00 0.00 0.00 55 1001.5
20260904091655 62 0 3.0 6.0 0.00 0.00 0.00 64 1001.4
20260904090800 62 22 2.0 4.0 0.00 0.00 0.00 61 1001.4
20260904085836 62 135 1.0 3.0 0.00 0.00 0.00 59 1001.4
20260904084950 62 315 1.0 2.0 0.00 0.00 0.00 59 1001.3
20260904083950 63 68 1.0 2.0 0.00 0.00 0.00 64 1001.5
20260904083146 63 0 0.0 1.0 0.00 0.00 0.00 59 1001.4
20260904082306 63 292 1.0 1.0 0.00 0.00 0.00 57 1001.4
20260904081450 63 292 1.0 2.0 0.00 0.00 0.00 56 1001.5
20260904080500 63 0 1.0 3.0 0.00 0.00 0.00 59 1001.4
20260904075605 63 315 1.0 2.0 0.00 0.00 0.00 60 1001.6
20260904074610 63 315 2.0 3.0 0.00 0.00 0.00 57 1001.5
20260904073723 63 315 1.0 2.0 0.00 0.00 0.00 58 1001.6
20260904072846 63 0 0.0 1.0 0.00 0.00 0.00 56 1001.8
20260904072000 65 0 0.0 1.0 0.00 0.00 0.00 54 1001.8
20260904071010 65 225 1.0 5.0 0.00 0.00 0.00 52 1001.7
20260904070105 66 0 1.0 2.0 0.00 0.00 0.00 52 1001.5
20260904065200 67 0 0.0 1.0 0.00 0.00 0.00 51 1001.8
20260904064303 68 0 0.0 1.0 0.00 0.00 0.00 50 1001.6
20260904063442 68 135 2.0 4.0 0.00 0.00 0.00 48 1001.7
20260904063346 68 135 2.0 4.0 0.00 0.00 0.00 48 1001.7
20260904062356 69 112 1.0 2.0 0.00 0.00 0.00 45 1001.4
20260904061416 69 68 2.0 3.0 0.00 0.00 0.00 46 1001.3
20260904060520 69 0 2.0 5.0 0.00 0.00 0.00 46 1001.0
20260904055625 69 0 2.0 5.0 0.00 0.00 0.00 47 1001.0
20260904054801 69 292 2.0 6.0 0.00 0.00 0.00 44 1001.0
20260904054043 69 315 1.0 3.0 0.00 0.00 0.00 43 1000.8
20260904053945 69 315 1.0 3.0 0.00 0.00 0.00 43 1000.8
20260904052956 70 315 1.0 3.0 0.00 0.00 0.00 43 1000.8
20260904052000 72 315 1.0 2.0 0.00 0.00 0.00 43 1000.8
20260904051050 72 270 1.0 2.0 0.00 0.00 0.00 41 1000.8
20260904050100 72 0 2.0 3.0 0.00 0.00 0.00 41 1000.8
20260904045141 73 0 3.0 6.0 0.00 0.00 0.00 42 1000.8
20260904044327 73 0 3.0 7.0 0.00 0.00 0.00 44 1000.8
20260904043455 74 0 3.0 6.0 0.00 0.00 0.00 44 1000.9
20260904042605 74 338 4.0 9.0 0.00 0.00 0.00 43 1000.9
20260904041640 74 0 3.0 7.0 0.00 0.00 0.00 42 1000.8
20260904040721 74 0 3.0 6.0 0.00 0.00 0.00 41 1000.9
20260904035801 74 0 2.0 4.0 0.00 0.00 0.00 41 1000.9
20260904034945 74 315 3.0 6.0 0.00 0.00 0.00 41 1001.0
20260904034126 75 0 3.0 7.0 0.00 0.00 0.00 41 1001.0
20260904033200 75 0 2.0 5.0 0.00 0.00 0.00 39 1001.3
20260904032251 76 338 2.0 5.0 0.00 0.00 0.00 40 1001.2
20260904031350 76 338 3.0 7.0 0.00 0.00 0.00 40 1001.1
20260904030515 76 0 4.0 6.0 0.00 0.00 0.00 38 1001.0
20260904025655 76 0 3.0 7.0 0.00 0.00 0.00 39 1000.9
20260904024745 77 0 4.0 10.0 0.00 0.00 0.00 39 1000.9
20260904023945 76 0 4.0 8.0 0.00 0.00 0.00 40 1000.8
20260904023050 76 0 4.0 7.0 0.00 0.00 0.00 39 1000.8
20260904022151 77 0 3.0 7.0 0.00 0.00 0.00 42 1000.7
20260904021350 77 0 4.0 9.0 0.00 0.00 0.00 40 1000.6
20260904020455 78 0 3.0 6.0 0.00 0.00 0.00 37 1000.6
20260904015505 79 0 3.0 4.0 0.00 0.00 0.00 38 1000.5
20260904014525 79 0 2.0 4.0 0.00 0.00 0.00 38 1000.5
20260904013640 80 0 2.0 4.0 0.00 0.00 0.00 34 1000.5
20260904012805 81 0 2.0 5.0 0.00 0.00 0.00 34 1000.5
20260904011105 82 22 3.0 7.0 0.00 0.00 0.00 31 1000.4
20260904005320 84 45 4.0 9.0 0.00 0.00 0.00 29 1000.3
20260904004455 84 45 4.0 10.0 0.00 0.00 0.00 28 1000.4
20260904002833 85 45 2.0 5.0 0.00 0.00 0.00 27 1000.3
20260904001921 86 68 2.0 4.0 0.00 0.00 0.00 26 1000.2
20260904001055 86 90 1.0 3.0 0.00 0.00 0.00 26 1000.3
20260904000056 87 68 3.0 8.0 0.00 0.00 0.00 28 1000.2
20260903235232 87 68 2.0 5.0 0.00 0.00 0.00 27 1000.3
20260903234346 87 135 2.0 5.0 0.00 0.00 0.00 25 1000.3
20260903233517 87 68 3.0 7.0 0.00 0.00 0.00 25 1000.4
20260903232536 87 112 2.0 4.0 0.00 0.00 0.00 24 1000.3
20260903231731 87 45 3.0 6.0 0.00 0.00 0.00 23 1000.4
20260903230821 88 68 1.0 4.0 0.00 0.00 0.00 25 1000.5
20260903225925 88 90 3.0 6.0 0.00 0.00 0.00 24 1000.6
20260903225121 88 68 4.0 7.0 0.00 0.00 0.00 23 1000.5
20260903224141 88 112 4.0 7.0 0.00 0.00 0.00 24 1000.6
20260903223246 88 45 4.0 9.0 0.00 0.00 0.00 25 1000.8
20260903222350 89 90 4.0 9.0 0.00 0.00 0.00 24 1000.8
20260903221525 89 68 4.0 10.0 0.00 0.00 0.00 22 1000.9
20260903220710 89 180 3.0 7.0 0.00 0.00 0.00 24 1000.9
20260903215836 90 45 2.0 3.0 0.00 0.00 0.00 23 1001.0
20260903215021 90 225 2.0 5.0 0.00 0.00 0.00 24 1001.2
20260903214031 89 135 2.0 5.0 0.00 0.00 0.00 27 1001.0
20260903213036 90 158 3.0 5.0 0.00 0.00 0.00 27 1001.2
20260903212201 90 135 2.0 7.0 0.00 0.00 0.00 27 1001.4
20260903211206 90 135 3.0 6.0 0.00 0.00 0.00 24 1001.4
20260903210330 90 158 5.0 11.0 0.00 0.00 0.00 25 1001.4
20260903205526 90 112 2.0 12.0 0.00 0.00 0.00 24 1001.5
20260903203805 89 135 3.0 7.0 0.00 0.00 0.00 25 1001.7
20260903202946 88 68 4.0 11.0 0.00 0.00 0.00 25 1001.9
20260903202106 88 68 4.0 11.0 0.00 0.00 0.00 28 1001.8
20260903201200 88 158 2.0 6.0 0.00 0.00 0.00 31 1002.0
20260903200301 88 158 5.0 13.0 0.00 0.00 0.00 28 1002.0
20260903195501 88 68 5.0 13.0 0.00 0.00 0.00 26 1002.1
20260903194612 88 68 3.0 9.0 0.00 0.00 0.00 29 1002.1
20260903193701 88 135 3.0 9.0 0.00 0.00 0.00 26 1002.3
20260903192720 87 112 5.0 10.0 0.00 0.00 0.00 28 1002.4
20260903190920 87 158 5.0 12.0 0.00 0.00 0.00 28 1002.4
20260903190021 88 112 3.0 7.0 0.00 0.00 0.00 30 1002.4
20260903185116 88 158 4.0 10.0 0.00 0.00 0.00 27 1002.5
20260903184141 87 135 4.0 9.0 0.00 0.00 0.00 28 1002.6
20260903183155 87 158 4.0 9.0 0.00 0.00 0.00 26 1002.8
20260903182505 87 135 6.0 12.0 0.00 0.00 0.00 26 1002.8
20260903182350 87 135 6.0 12.0 0.00 0.00 0.00 26 1002.8
20260903181426 87 90 3.0 7.0 0.00 0.00 0.00 30 1003.0
20260903180446 87 270 3.0 6.0 0.00 0.00 0.00 27 1003.0
20260903175606 86 0 4.0 10.0 0.00 0.00 0.00 28 1003.1
20260903174841 85 0 4.0 12.0 0.00 0.00 0.00 31 1003.1
20260903174805 85 0 4.0 12.0 0.00 0.00 0.00 31 1003.1
20260903173811 86 292 5.0 12.0 0.00 0.00 0.00 30 1003.2
20260903173006 85 292 5.0 12.0 0.00 0.00 0.00 29 1003.5
20260903171135 85 270 7.0 13.0 0.00 0.00 0.00 27 1003.5
20260903170150 84 270 12.0 17.0 0.00 0.00 0.00 28 1003.7
20260903165330 83 270 13.0 19.0 0.00 0.00 0.00 31 1003.8
20260903164453 81 248 13.0 21.0 0.00 0.00 0.00 32 1003.8
20260903163521 80 248 13.0 21.0 0.00 0.00 0.00 34 1003.8
20260903162616 78 270 14.0 22.0 0.00 0.00 0.00 35 1003.9
20260903161806 76 270 14.0 21.0 0.00 0.00 0.00 38 1003.9
20260903160936 75 45 1.0 4.0 0.00 0.00 0.00 51 1004.0
20260903160126 74 202 2.0 6.0 0.00 0.00 0.00 51 1004.0
20260903155246 74 68 1.0 4.0 0.00 0.00 0.00 56 1003.9
20260903154409 73 112 1.0 3.0 0.00 0.00 0.00 58 1003.9
20260903153421 72 135 3.0 7.0 0.00 0.00 0.00 56 1003.7
20260903152605 72 90 2.0 5.0 0.00 0.00 0.00 58 1003.7